| time (UTC) | temp C | wind direction | speed KPH | gust KPH | rain 1hr cm | rain 24hr cm | rain mn cm | humidity % | barometer mb |
| 20260503051552 | 16 | 0 | 0.0 | 0.0 | 0.00 | 0.03 | 0.00 | 70 | 1020.3 |
| 20260503050055 | 16 | 0 | 0.0 | 0.0 | 0.00 | 0.03 | 0.00 | 72 | 1020.2 |
| 20260503044553 | 17 | 0 | 0.0 | 0.0 | 0.00 | 0.03 | 0.03 | 72 | 1020.3 |
| 20260503043053 | 17 | 0 | 0.0 | 0.0 | 0.00 | 0.03 | 0.03 | 70 | 1020.3 |
| 20260503041552 | 17 | 0 | 0.0 | 0.0 | 0.00 | 0.03 | 0.03 | 70 | 1020.1 |
| 20260503040052 | 17 | 0 | 0.0 | 0.0 | 0.00 | 0.03 | 0.03 | 69 | 1020.0 |
| 20260503034550 | 17 | 0 | 0.0 | 0.0 | 0.00 | 0.03 | 0.03 | 68 | 1019.9 |
| 20260503033106 | 18 | 0 | 0.0 | 0.0 | 0.00 | 0.03 | 0.03 | 67 | 1020.0 |
| 20260503031554 | 18 | 0 | 0.0 | 0.0 | 0.00 | 0.03 | 0.03 | 66 | 1019.7 |
| 20260503030054 | 18 | 0 | 0.0 | 0.0 | 0.00 | 0.03 | 0.03 | 64 | 1019.6 |
| 20260503024555 | 18 | 0 | 0.0 | 0.0 | 0.00 | 0.03 | 0.03 | 63 | 1019.6 |
| 20260503023102 | 19 | 0 | 0.0 | 0.0 | 0.00 | 0.03 | 0.03 | 61 | 1019.3 |
| 20260503021553 | 19 | 0 | 0.0 | 0.0 | 0.00 | 0.03 | 0.03 | 60 | 1019.2 |
| 20260503020052 | 20 | 0 | 0.0 | 0.0 | 0.00 | 0.03 | 0.03 | 58 | 1018.8 |
| 20260503014559 | 20 | 0 | 0.0 | 0.0 | 0.00 | 0.03 | 0.03 | 58 | 1018.9 |
| 20260503013056 | 21 | 0 | 0.0 | 0.0 | 0.00 | 0.03 | 0.03 | 56 | 1018.6 |
| 20260503011551 | 21 | 0 | 0.0 | 0.0 | 0.00 | 0.03 | 0.03 | 55 | 1018.6 |
| 20260503010054 | 21 | 0 | 0.0 | 0.0 | 0.00 | 0.03 | 0.03 | 53 | 1018.3 |
| 20260503004553 | 22 | 0 | 0.0 | 0.0 | 0.00 | 0.03 | 0.03 | 51 | 1018.0 |
| 20260503003107 | 22 | 0 | 0.0 | 1.6 | 0.00 | 0.03 | 0.03 | 50 | 1018.1 |
| 20260503001554 | 22 | 0 | 0.0 | 4.8 | 0.00 | 0.03 | 0.03 | 49 | 1018.0 |
| 20260503000055 | 22 | 0 | 0.0 | 1.6 | 0.00 | 0.03 | 0.03 | 48 | 1017.8 |
| 20260502234559 | 22 | 0 | 0.0 | 1.6 | 0.00 | 0.10 | 0.03 | 48 | 1017.7 |
| 20260502233054 | 22 | 0 | 0.0 | 3.2 | 0.00 | 0.10 | 0.03 | 47 | 1017.7 |
| 20260502231609 | 22 | 0 | 0.0 | 3.2 | 0.00 | 0.10 | 0.03 | 47 | 1017.7 |
| 20260502230058 | 22 | 0 | 0.0 | 4.8 | 0.00 | 0.10 | 0.03 | 47 | 1017.8 |
| 20260502224559 | 22 | 69 | 0.0 | 6.4 | 0.00 | 0.23 | 0.03 | 46 | 1017.8 |
| 20260502223054 | 23 | 71 | 0.0 | 4.8 | 0.00 | 0.23 | 0.03 | 48 | 1017.9 |
| 20260502221552 | 23 | 63 | 1.6 | 4.8 | 0.00 | 0.23 | 0.03 | 46 | 1017.8 |
| 20260502220056 | 23 | 63 | 1.6 | 8.0 | 0.00 | 0.23 | 0.03 | 46 | 1018.1 |
| 20260502214554 | 23 | 0 | 0.0 | 3.2 | 0.00 | 0.46 | 0.03 | 48 | 1018.1 |
| 20260502213105 | 23 | 0 | 0.0 | 3.2 | 0.00 | 0.46 | 0.03 | 50 | 1018.4 |
| 20260502211556 | 23 | 0 | 1.6 | 8.0 | 0.00 | 0.46 | 0.03 | 49 | 1018.4 |
| 20260502210054 | 23 | 0 | 0.0 | 6.4 | 0.00 | 0.46 | 0.03 | 52 | 1018.7 |
| 20260502204602 | 22 | 347 | 0.0 | 3.2 | 0.00 | 0.81 | 0.03 | 52 | 1018.8 |
| 20260502203055 | 22 | 0 | 0.0 | 4.8 | 0.00 | 0.81 | 0.03 | 51 | 1018.7 |
| 20260502201555 | 22 | 65 | 1.6 | 6.4 | 0.00 | 0.81 | 0.03 | 52 | 1019.0 |
| 20260502200057 | 22 | 0 | 0.0 | 8.0 | 0.00 | 0.81 | 0.03 | 51 | 1019.1 |
| 20260502194555 | 22 | 57 | 0.0 | 4.8 | 0.00 | 1.07 | 0.03 | 54 | 1019.2 |
| 20260502193055 | 22 | 0 | 1.6 | 6.4 | 0.00 | 1.07 | 0.03 | 55 | 1019.4 |
| 20260502191554 | 22 | 0 | 0.0 | 6.4 | 0.00 | 1.07 | 0.03 | 56 | 1019.5 |
| 20260502190052 | 22 | 65 | 3.2 | 6.4 | 0.00 | 1.07 | 0.03 | 54 | 1019.8 |
| 20260502184558 | 22 | 46 | 0.0 | 4.8 | 0.00 | 1.07 | 0.03 | 58 | 1020.0 |
| 20260502183056 | 22 | 0 | 0.0 | 3.2 | 0.00 | 1.07 | 0.03 | 56 | 1020.1 |
| 20260502181554 | 21 | 355 | 0.0 | 6.4 | 0.00 | 1.07 | 0.03 | 59 | 1020.3 |
| 20260502180105 | 21 | 70 | 0.0 | 8.0 | 0.00 | 1.07 | 0.03 | 59 | 1020.6 |
| 20260502170108 | 20 | 0 | 0.0 | 6.4 | 0.03 | 1.19 | 0.03 | 60 | 1021.0 |
| 20260502163053 | 20 | 65 | 0.0 | 6.4 | 0.00 | 1.19 | 0.00 | 61 | 1021.0 |
| 20260502161557 | 18 | 22 | 0.0 | 6.4 | 0.00 | 1.19 | 0.00 | 65 | 1021.0 |
| 20260502151555 | 17 | 0 | 0.0 | 3.2 | 0.00 | 1.37 | 0.00 | 76 | 1020.9 |
| 20260502123056 | 10 | 0 | 0.0 | 0.0 | 0.00 | 2.03 | 0.00 | 92 | 1019.2 |
| 20260502121555 | 10 | 0 | 0.0 | 1.6 | 0.00 | 2.03 | 0.00 | 92 | 1018.7 |
| 20260502114559 | 10 | 0 | 0.0 | 0.0 | 0.00 | 2.51 | 0.00 | 92 | 1018.4 |
| 20260502113057 | 10 | 0 | 0.0 | 0.0 | 0.00 | 2.51 | 0.00 | 92 | 1018.1 |
| 20260502111608 | 10 | 0 | 0.0 | 0.0 | 0.00 | 2.51 | 0.00 | 92 | 1018.1 |
| 20260502110057 | 10 | 0 | 0.0 | 0.0 | 0.00 | 2.51 | 0.00 | 92 | 1017.8 |
| 20260502104554 | 10 | 0 | 0.0 | 1.6 | 0.00 | 2.77 | 0.00 | 92 | 1017.6 |
| 20260502103110 | 10 | 0 | 0.0 | 0.0 | 0.00 | 2.77 | 0.00 | 92 | 1017.4 |
| 20260502101609 | 10 | 0 | 0.0 | 1.6 | 0.00 | 2.77 | 0.00 | 92 | 1017.3 |
| 20260502100104 | 10 | 0 | 0.0 | 1.6 | 0.00 | 2.77 | 0.00 | 91 | 1017.2 |
| 20260502070057 | 11 | 0 | 0.0 | 1.6 | 0.00 | 3.58 | 0.00 | 91 | 1016.2 |
| 20260502064601 | 11 | 0 | 0.0 | 1.6 | 0.00 | 3.58 | 0.00 | 91 | 1016.3 |
| 20260502063059 | 11 | 0 | 0.0 | 3.2 | 0.00 | 3.58 | 0.00 | 92 | 1016.3 |
| 20260502061600 | 11 | 360 | 0.0 | 3.2 | 0.00 | 3.58 | 0.00 | 92 | 1016.1 |
| 20260502060057 | 11 | 0 | 0.0 | 1.6 | 0.00 | 3.58 | 0.00 | 92 | 1016.3 |
| 20260502054602 | 11 | 360 | 0.0 | 3.2 | 0.00 | 3.61 | 0.00 | 92 | 1016.3 |
| 20260502053059 | 11 | 0 | 0.0 | 3.2 | 0.00 | 3.61 | 0.00 | 92 | 1016.4 |